Location: Glencliff
(36.1226°N, 86.7183°W)
Time: 07:35:37
(UTC+00:00)

SeaSat 1 - Pass Details

Date: 25 August 2019
Orbit: 745 x 747 km, 108.0° (Epoch: 17 October)

Event Time Altitude Azimuth Distance (km) Brightness Sun altitude
Rises 07:50:13 0° 22° (NNE) 3,196 6.7 -35.1°
Reaches altitude 10° 07:52:30 10° 21° (NNE) 2,268 5.7 -34.8°
Enters shadow 07:55:04 31° 15° (NNE) 1,284 4.0 -34.5°
